map of MDZ home
Great Circle Mapper logo
MDZ - Airport
Location
City:  Mendoza, Mendoza, Argentina
Name:Governor Francisco Gabrielli International Airport
Old (Alt.):El Plumerillo International Airport
ICAO / IATA:SAME / MDZ

Details
Type:Airport (Aerodrome, Airfield)
Use:Public/Civil, Military, International (customs port of entry)
Latitude:3249'54"S (-32.831716)
Longitude:6847'34"W (-68.792855)
Datum:WGS 1984
Elevation:2310 ft (704 m)
Runways:1
Longest:9151 × 177 ft (2789 × 54 m), paved

Time
Time Zone:UTC-3
Local Time:

Weather
METAR:SAME 231000Z 00000KT CAVOK 07/M01 Q1015
TAF:SAME 230500Z 2306/2406 VRB03KT 9999 BKN030 TN05/2311Z TX20/2320Z
BECMG 2314/2316 11005KT CAVOK

Related Locations
Nearby:
Farthest:LHK: 12393 mi / 19944 km
Guanghua, Hubei, CN

Find:

   beyond  
but within

Other Information
Maps:
NOTAMs:
Links:
Sources:

  
flag of Argentina
flag of Mendoza
  

Sectional Chart

Flight Planning
at skyvector.com

Satellite Image

Google Maps Satellite View

 

Copyright © 2004-2014 Karl L. Swartz. All rights reserved.
The Great Circle Mapper name and logo are trademarks of the Great Circle Mapper.
All other trademarks mentioned herein belong to their respective owners.
Please see credits for attibutions and further copyright information.

  Follow gcmap on Facebook Follow gcmap on Twitter

hCard Microformat

Geo Microformat